[[{"header":{"parameterUnit":"m.s-1","parameterCategory":1,"la1":30.2991,"la2":30.254,"lo1":-89.0895,"lo2":-89.0444,"dy":0.0017,"dx":0.0017,"nx":28,"ny":28,"refTime":"2024-08-29T09:00:00:Z","depth":0,"parameterNumber":2,"parameterNumberName":"U-component_of_WINDS"},"data":[0,0,0,0,0,0,0,0,0,0,0,0,0,0,0,0,0,0,0,0,0,0,0,0,0,0,0,0,0,0,0,0,0,0,0,0,0,0,0,0,0,0,0,0,0,0,0,0,0,0,0,0,0,0,0,0,0,0,-2.1679,-2.1678,0,-2.156,-2.1559,-2.1557,-2.1447,-2.1446,-2.1445,-2.1443,-2.1321,-2.1319,-2.1317,0,0,0,0,0,0,0,0,0,0,0,0,0,-2.1811,-2.1809,-2.1679,-2.1678,-2.1676,-2.156,-2.1559,-2.1557,-2.1448,-2.1446,-2.1444,-2.1443,-2.1322,-2.1319,-2.1317,0,0,0,0,0,0,0,0,0,0,0,0,0,-2.1729,-2.1808,-2.1679,-2.1608,-2.16,-2.1561,-2.1559,-2.1557,-2.1448,-2.1446,-2.1444,-2.1442,-2.1322,-2.132,-2.1317,-2.1338,0,0,-2.1307,-2.1306,0,0,0,0,0,0,0,0,-2.1734,-2.1724,-2.162,-2.1613,-2.1604,-2.1517,-2.156,-2.1484,-2.1449,-2.1506,-2.1443,-2.1441,-2.1388,-2.1379,-2.1361,-2.1333,-2.1327,-2.1307,-2.1305,-2.1304,-2.1303,0,0,0,0,0,0,0,-2.174,-2.1729,-2.1632,-2.1618,-2.1609,-2.1581,-2.1567,-2.1545,-2.1459,-2.1501,-2.1492,-2.148,-2.1383,-2.1364,-2.1358,-2.1326,-2.1307,-2.1305,-2.1303,-2.1302,-2.1307,-2.1309,0,0,0,0,0,0,-2.1756,-2.1734,-2.1636,-2.1628,-2.1665,-2.158,-2.1565,-2.1547,-2.1459,-2.1444,-2.1482,-2.1475,-2.1371,-2.1361,-2.1353,-2.1371,-2.1304,-2.1301,-2.13,-2.1305,-2.1308,-2.131,0,0,0,0,0,0,-2.176,-2.1749,-2.1641,-2.1679,-2.1663,-2.158,-2.1561,-2.1545,-2.1527,-2.1445,-2.1429,-2.1478,-2.1369,-2.1357,-2.1342,-2.1365,-2.13,-2.1297,-2.1303,-2.1306,-2.1309,-2.1409,0,0,0,0,0,0,-2.1764,-2.175,-2.1758,-2.168,-2.1662,-2.1633,-2.1562,-2.1545,-2.1522,-2.1512,-2.1438,-2.1424,-2.1366,-2.1348,-2.134,-2.136,-2.1295,-2.1301,-2.1304,-2.1308,-2.1404,-2.1415,-2.1425,0,0,0,0,0,-2.1769,-2.1791,-2.1759,-2.1748,-2.167,-2.1634,-2.1624,-2.1557,-2.1524,-2.1531,-2.1478,-2.1426,-2.1365,-2.1347,-2.1337,-2.1357,-2.1299,-2.1303,-2.1308,-2.1399,-2.1413,-2.1425,0,0,0,0,0,0,-2.1874,-2.178,-2.1743,-2.1741,-2.1697,-2.1616,-2.1622,-2.1575,-2.1539,-2.1531,-2.145,-2.1434,-2.1429,-2.1391,-2.1374,-2.1373,-2.1324,-2.1327,-2.1397,-2.141,-2.1421,-2.1429,-2.1292,0,0,0,0,0,-2.1898,-2.1877,-2.1796,-2.1802,-2.1781,-2.1706,-2.1688,-2.1641,-2.1592,-2.1572,-2.1519,-2.1473,-2.1442,-2.1424,-2.1393,-2.1398,-2.138,-2.1407,-2.1418,-2.1427,-2.143,-2.1429,-2.1439,-2.1324,-2.1324,-2.1324,0,0,-2.1945,-2.1891,-2.1883,-2.1821,-2.1781,-2.1762,-2.1691,-2.1673,-2.1657,-2.1569,-2.1552,-2.1511,-2.1454,-2.145,-2.1445,-2.1418,-2.1458,-2.1433,-2.1441,-2.1438,-2.1434,-2.1445,-2.1455,-2.1327,-2.1327,-2.1326,0,0,-2.202,-2.1978,-2.1978,-2.1939,-2.1879,-2.1829,-2.1829,-2.1756,-2.1725,-2.1707,-2.164,-2.162,-2.1571,-2.1532,-2.1506,-2.1568,-2.1517,-2.156,-2.1616,-2.1616,-2.1625,-2.1632,-2.1653,-2.1661,-2.1563,-2.1563,-2.1563,0,-2.2087,-2.2054,-2.1984,-2.1969,-2.1944,-2.1864,-2.1862,-2.1828,-2.1762,-2.1745,-2.1717,-2.1653,-2.1609,-2.1593,-2.1608,-2.1591,-2.1587,-2.1567,-2.1629,-2.1636,-2.1642,-2.1661,-2.1669,-2.1568,-2.1568,-2.1567,-2.1567,0,-2.2138,-2.2116,-2.2123,-2.206,-2.2036,-2.2028,-2.1956,-2.194,-2.1895,-2.1848,-2.1829,-2.1774,-2.1729,-2.1722,-2.1678,-2.17,-2.1685,-2.1645,-2.1594,-2.166,-2.1675,-2.1682,-2.1576,-2.1574,-2.1573,-2.1571,0,0,-2.2276,-2.2174,-2.2177,-2.2147,-2.2075,-2.2057,-2.2046,-2.2002,-2.1989,-2.1946,-2.1933,-2.1893,-2.1855,-2.1826,-2.1777,-2.1777,-2.1827,-2.1735,-2.1733,-2.1753,-2.1846,-2.1876,-2.1885,-2.1794,-2.1795,-2.1796,-2.185,0,-2.2338,-2.2313,-2.2249,-2.2243,-2.2221,-2.2145,-2.2135,-2.209,-2.2045,-2.202,-2.1971,-2.1943,-2.1896,-2.1877,-2.1874,-2.1822,-2.1844,-2.1817,-2.178,-2.178,-2.1795,-2.1894,-2.1925,-2.1979,-2.1856,-2.1857,-2.1858,0,-2.2407,-2.2368,-2.2361,-2.2289,-2.2277,-2.227,-2.2223,-2.2201,-2.2148,-2.2115,-2.2083,-2.2029,-2.2012,-2.1967,-2.1942,-2.1925,-2.1906,-2.1878,-2.1878,-2.1871,-2.1822,-2.1888,-2.1995,-2.2003,-2.1867,-2.1866,-2.1866,0,-2.2507,-2.2453,-2.244,-2.2417,-2.2334,-2.233,-2.2295,-2.224,-2.2217,-2.2177,-2.2161,-2.212,-2.2097,-2.2066,-2.2002,-2.1975,-2.1984,-2.1933,-2.1955,-2.1957,-2.1959,-2.196,-2.2064,-2.195,-2.195,-2.195,-2.195,0,-2.2582,-2.258,-2.2484,-2.2476,-2.2471,-2.2398,-2.2395,-2.2352,-2.2304,-2.2286,-2.2218,-2.2203,-2.212,-2.2095,-2.2045,-2.2031,-2.2022,-2.1995,-2.1981,-2.2,-2.2003,-2.1985,-2.1979,-2.1952,-2.1952,-2.1951,-2.1951,0,-2.2692,-2.2627,-2.2609,-2.2531,-2.2512,-2.2511,-2.2445,-2.2434,-2.2386,-2.2364,-2.2355,-2.2279,-2.2247,-2.218,-2.2129,-2.2095,-2.2092,-2.2069,-2.211,-2.2101,-2.2127,-2.2125,-2.2221,-2.223,-2.2114,-2.2115,-2.2116,0,-2.2743,-2.2739,-2.2662,-2.2645,-2.2613,-2.2587,-2.2563,-2.2491,-2.2469,-2.2408,-2.2404,-2.2366,-2.2332,-2.2283,-2.2223,-2.2183,-2.2158,-2.2194,-2.2151,-2.217,-2.2156,-2.2157,-2.2155,-2.2204,-2.2205,-2.2207,-2.2208,0,-2.2841,-2.2809,-2.2778,-2.2735,-2.2709,-2.2672,-2.2631,-2.2621,-2.2539,-2.2518,-2.2484,-2.2457,-2.2405,-2.2367,-2.2319,-2.2282,-2.2231,-2.2222,-2.2225,-2.2243,-2.2266,-2.2252,-2.2135,-2.222,-2.2219,-2.2218,-2.2217,-2.2217,-2.2922,-2.2914,-2.2858,-2.2825,-2.2787,-2.275,-2.2736,-2.2686,-2.2656,-2.2608,-2.2567,-2.2536,-2.2482,-2.2412,-2.2378,-2.2352,-2.2328,-2.2332,-2.2333,-2.2335,-2.2342,-2.2272,-2.2343,-2.2343,-2.2343,-2.2342,-2.2342,0,-2.3015,-2.2975,-2.2945,-2.289,-2.2864,-2.2819,-2.2771,-2.2752,-2.2726,-2.268,-2.2647,-2.2607,-2.2571,-2.2508,-2.2466,-2.2457,-2.2433,-2.2448,-2.2447,-2.244,-2.2367,-2.2368,-2.2469,-2.2469,-2.2469,-2.2469,-2.2469,-2.2469,-2.306,-2.3045,-2.3006,-2.2971,-2.2931,-2.29,-2.2876,-2.2842,-2.2805,-2.2763,-2.2732,-2.2692,-2.2639,-2.2592,-2.2556,-2.2539,-2.2526,-2.2549,-2.2524,-2.2457,-2.2445,-2.2433,-2.2434,-2.2547,-2.2547,-2.2598,-2.2598,-2.2599]},{"header":{"parameterUnit":"m.s-1","parameterCategory":1,"la1":30.2991,"la2":30.254,"lo1":-89.0895,"lo2":-89.0444,"dy":0.0017,"dx":0.0017,"nx":28,"ny":28,"refTime":"2024-08-29T09:00:00:Z","depth":0,"parameterNumber":3,"parameterNumberName":"V-component_of_WINDS"},"data":[0,0,0,0,0,0,0,0,0,0,0,0,0,0,0,0,0,0,0,0,0,0,0,0,0,0,0,0,0,0,0,0,0,0,0,0,0,0,0,0,0,0,0,0,0,0,0,0,0,0,0,0,0,0,0,0,0,0,2.3279,2.3279,0,2.3214,2.3214,2.3213,2.3106,2.3104,2.3102,2.31,2.3036,2.3036,2.3036,0,0,0,0,0,0,0,0,0,0,0,0,0,2.3312,2.3312,2.3279,2.3278,2.3278,2.3214,2.3214,2.3213,2.3106,2.3104,2.3102,2.3099,2.3036,2.3036,2.3036,0,0,0,0,0,0,0,0,0,0,0,0,0,2.3278,2.3312,2.3279,2.3217,2.3211,2.3215,2.3214,2.3212,2.3107,2.3104,2.3101,2.3098,2.3036,2.3036,2.3036,2.3097,0,0,2.3037,2.3037,0,0,0,0,0,0,0,0,2.328,2.3277,2.3227,2.3221,2.3214,2.3165,2.3202,2.3174,2.3108,2.3146,2.31,2.3097,2.3082,2.3078,2.3072,2.3094,2.3091,2.3037,2.3037,2.3037,2.3037,0,0,0,0,0,0,0,2.3283,2.3279,2.3254,2.3226,2.3219,2.3193,2.3184,2.3196,2.3132,2.3143,2.3135,2.3129,2.3078,2.3072,2.307,2.309,2.3037,2.3037,2.3037,2.3037,2.3157,2.316,0,0,0,0,0,0,2.3294,2.3282,2.3256,2.3252,2.3241,2.3194,2.3185,2.3184,2.3131,2.312,2.3131,2.3124,2.3074,2.307,2.3067,2.3134,2.3037,2.3037,2.3038,2.3154,2.3158,2.3161,0,0,0,0,0,0,2.3295,2.3293,2.3258,2.3265,2.3258,2.3197,2.3196,2.3184,2.3179,2.3122,2.311,2.3138,2.3071,2.3067,2.309,2.313,2.3038,2.3038,2.315,2.3155,2.3159,2.3269,0,0,0,0,0,0,2.3297,2.3294,2.3316,2.3266,2.3258,2.3282,2.3199,2.3185,2.3179,2.3169,2.3125,2.3115,2.3068,2.309,2.309,2.3129,2.3038,2.3147,2.3153,2.3158,2.3261,2.3276,2.329,0,0,0,0,0,2.3298,2.335,2.3317,2.3315,2.3284,2.3285,2.328,2.3225,2.3183,2.3205,2.3168,2.3116,2.3126,2.3094,2.3093,2.3132,2.3144,2.3151,2.3158,2.3255,2.3274,2.3289,0,0,0,0,0,0,2.3407,2.3342,2.3306,2.3343,2.332,2.3266,2.3292,2.3247,2.3236,2.3227,2.3159,2.315,2.3182,2.3159,2.3124,2.3187,2.3127,2.3134,2.3201,2.3218,2.3232,2.3237,2.3038,0,0,0,0,0,2.3435,2.344,2.3383,2.3421,2.3412,2.3354,2.3352,2.3312,2.3286,2.3276,2.3241,2.3218,2.3215,2.3216,2.321,2.3257,2.3246,2.3284,2.3298,2.331,2.3317,2.3339,2.3356,2.3184,2.3184,2.3183,0,0,2.3494,2.3459,2.3466,2.3442,2.342,2.3427,2.3347,2.3358,2.3362,2.3277,2.3297,2.327,2.324,2.3275,2.3289,2.3257,2.3362,2.3319,2.3329,2.3329,2.3348,2.3365,2.3379,2.3188,2.3187,2.3187,0,0,2.3604,2.3578,2.3607,2.3586,2.3552,2.3514,2.3521,2.3474,2.3453,2.3471,2.3407,2.3412,2.3409,2.339,2.3381,2.3483,2.3435,2.3483,2.3557,2.358,2.3594,2.3605,2.3642,2.3656,2.349,2.3491,2.3491,0,2.3682,2.3689,2.3628,2.3642,2.3634,2.3556,2.3585,2.3567,2.3535,2.3531,2.3495,2.349,2.3464,2.3493,2.3518,2.3513,2.3519,2.3488,2.3597,2.3608,2.3618,2.3652,2.3666,2.3497,2.3496,2.3495,2.3495,0,2.3786,2.3792,2.3819,2.3788,2.3783,2.3805,2.3747,2.3749,2.3708,2.3673,2.3693,2.3659,2.3645,2.3649,2.361,2.3673,2.3654,2.3609,2.3547,2.3641,2.3672,2.3685,2.3505,2.3503,2.3501,2.35,0,0,2.3964,2.3898,2.3909,2.3894,2.3851,2.3855,2.3873,2.3859,2.3862,2.3841,2.3855,2.3854,2.3812,2.38,2.3759,2.3779,2.3862,2.373,2.3729,2.3756,2.3929,2.3963,2.398,2.3829,2.3831,2.3833,2.3931,0,2.4066,2.4092,2.4037,2.4078,2.4083,2.4008,2.4024,2.4,2.3967,2.3967,2.3931,2.3932,2.3876,2.3868,2.3885,2.3848,2.3895,2.384,2.3842,2.3842,2.3852,2.3996,2.4032,2.4127,2.3943,2.3945,2.3946,0,2.4188,2.4173,2.4214,2.4168,2.4168,2.4183,2.4165,2.4166,2.4136,2.4111,2.4099,2.4049,2.4064,2.4003,2.4023,2.3986,2.3983,2.3966,2.3968,2.3966,2.3901,2.3998,2.4155,2.417,2.3965,2.3963,2.3962,0,2.4314,2.4304,2.4327,2.4316,2.4263,2.4276,2.4254,2.4222,2.4216,2.4201,2.4197,2.4184,2.4177,2.4168,2.4116,2.4077,2.4142,2.4077,2.4122,2.4123,2.4139,2.4139,2.4299,2.4137,2.4137,2.4137,2.4136,0,2.4434,2.4462,2.4383,2.4397,2.4426,2.4362,2.4393,2.4364,2.4336,2.4343,2.4278,2.4287,2.4217,2.4218,2.4178,2.42,2.4197,2.4178,2.4167,2.4184,2.4186,2.4182,2.4174,2.414,2.414,2.4139,2.4138,0,2.458,2.4528,2.4548,2.4496,2.4483,2.4507,2.4462,2.4473,2.4436,2.4447,2.4445,2.4388,2.4385,2.4332,2.4319,2.4292,2.4331,2.4307,2.4341,2.4333,2.4381,2.4378,2.4543,2.4562,2.4389,2.439,2.4392,0,2.466,2.468,2.4629,2.4629,2.4611,2.4612,2.4605,2.4544,2.454,2.4508,2.4523,2.4515,2.4505,2.4505,2.4462,2.4451,2.4427,2.4486,2.4425,2.4442,2.4429,2.4428,2.443,2.45,2.4502,2.4504,2.4505,0,2.4808,2.4781,2.4775,2.476,2.4754,2.4739,2.472,2.4724,2.4656,2.4655,2.4652,2.4644,2.463,2.4623,2.4604,2.4582,2.4533,2.4524,2.4534,2.4552,2.4571,2.4562,2.4376,2.4521,2.4519,2.4518,2.4517,2.4517,2.4924,2.4937,2.4904,2.4899,2.4878,2.4861,2.4869,2.4833,2.4828,2.4812,2.4775,2.4777,2.4747,2.4716,2.4698,2.4699,2.4669,2.4683,2.4687,2.4692,2.4701,2.457,2.4695,2.4695,2.4694,2.4694,2.4693,0,2.5068,2.5043,2.5039,2.5014,2.501,2.4963,2.4939,2.4939,2.4942,2.4917,2.4908,2.4904,2.4897,2.4853,2.4841,2.485,2.4827,2.4849,2.4848,2.4844,2.4729,2.4722,2.4867,2.4867,2.4867,2.4867,2.4867,2.4867,2.5143,2.5164,2.5133,2.5143,2.5117,2.5118,2.5109,2.5093,2.5073,2.5071,2.5064,2.5036,2.5003,2.4988,2.4979,2.4966,2.4965,2.4995,2.4975,2.4868,2.4852,2.4836,2.4829,2.4995,2.4995,2.5089,2.509,2.5091]}]]